Regional Weather Roundup
Issued by NWS

Home | Current Version | Previous Version | Graphics & Text | Print | Product List | Glossary On
Versions: 1 2 3 4 5 6 7 8 9 10 11 12 13 14 15 16 17 18 19 20 21 22 23 24 25 26 27 28 29 30 31 32 33 34 35 36 37 38 39 40 41 42 43 44 45 46 47 48 49 50
000
ASUS43 KLMK 232310
RWRKY
SDFRWRKY ALL
KENTUCKY REGIONAL WEATHER ROUNDUP
NATIONAL WEATHER SERVICE LOUISVILLE KY
600 PM EST SUN NOV 23 2014

NOTE "FAIR" INDICATES FEW OR NO CLOUDS BELOW 12,000 FEET
WITH NO SIGNIFICANT WEATHER AND/OR OBSTRUCTIONS TO VISIBILITY.

KYZ001>023-026-027-061>063-070>075-240000-
WESTERN AND SOUTH CENTRAL KENTUCKY

CITY           SKY/WX    TMP DP  RH WIND       PRES   REMARKS
PADUCAH        LGT RAIN  57  55  93 SE8       29.29F FOG
HENDERSON      CLOUDY    55  54  94 SE8       29.33F
OWENSBORO      LGT RAIN  57  55  94 MISG      29.35F
HOPKINSVILLE   CLOUDY    59  59 100 SE14G22   29.36F
BOWLING GREEN  LGT RAIN  59  55  87 S10       29.42F
GLASGOW        RAIN      56  56 100 SE14G21   29.44F
$$

KYZ024-025-028>034-038-045-046-053-240000-
NORTH CENTRAL KENTUCKY

CITY           SKY/WX    TMP DP  RH WIND       PRES   REMARKS
LOUISVILLE/SDF RAIN      55  53  93 SE9       29.44F FOG
LOUISVILLE/LOU HVY RAIN  55  53  93 SE7       29.45F FOG
FORT KNOX      LGT RAIN  54  52  94 E10       29.41F FOG
$$

KYZ035>037-039>044-047>052-055>060-089>105-240000-
NORTHEAST KENTUCKY

CITY           SKY/WX    TMP DP  RH WIND       PRES   REMARKS
LEXINGTON      HVY RAIN  54  52  93 SE18G25   29.51F FOG
COVINGTON      RAIN      55  52  89 SE22G28   29.49F FOG
FRANKFORT      HVY RAIN  54  52  93 SE14      29.47F FOG
$$

KYZ054-064>069-076>088-106>120-240000-
SOUTHEAST KENTUCKY

CITY           SKY/WX    TMP DP  RH WIND       PRES   REMARKS
JACKSON        LGT RAIN  54  51  90 SE7       29.59F
LONDON         LGT RAIN  60  51  72 SE16G24   29.55F
SOMERSET       RAIN      54  54 100 S8        29.55S
MIDDLESBORO    LGT RAIN  55  52  89 S5        29.64S
MONTICELLO     CLOUDY    57  54  90 SE15G24   29.52F FOG
$$




USA.gov is the U.S. government's official web portal to all federal, state and local government web resources and services.